HST 1 20580U 90037B 25351.10253682 .00005953 00000+0 20311-3 0 9998 2 20580 28.4677 242.7933 0001895 295.0426 64.9973 15.28113078760661 POLAR 1 23802U 96013A 25340.48239671 .00000144 00000+0 00000+0 0 9995 2 23802 79.6240 229.2201 6278774 215.5988 78.9527 1.29846135142354 SWAS 1 25560U 98071A 25351.37429765 .00003583 00000+0 23896-3 0 9991 2 25560 69.8969 335.8555 0006380 210.4645 149.6148 15.07990118469845 CXO 1 25867U 99040B 25351.90728450 .00000514 00000+0 00000+0 0 9999 2 25867 53.1169 122.3471 8128116 310.8350 0.1965 0.37801682 16634 XMM-NEWTON 1 25989U 99066A 25352.84950202 .00000081 00000+0 00000+0 0 9997 2 25989 65.4033 285.3699 4740231 68.0474 0.2178 0.50133546 22108 TERRA 1 25994U 99068A 25351.61605213 .00000411 00000+0 93062-4 0 9990 2 25994 97.9743 43.1215 0003580 85.0056 76.0683 14.60907456383091 CLUSTER II-FM7 (SAMBA) 1 26410U 00041A 25350.13450001 .00003337 00000+0 00000+0 0 9991 2 26410 147.6610 25.4775 8760679 241.2157 359.9561 0.44829777 19494 CLUSTER II-FM8 (TANGO) 1 26464U 00045B 25351.02153735 .00003590 00000+0 00000+0 0 9998 2 26464 147.9677 26.1815 8769138 241.7941 359.9664 0.44419529 19491 ODIN 1 26702U 01007A 25351.60993555 .00025742 00000+0 43469-3 0 9991 2 26702 97.4212 19.6892 0005263 96.5405 263.6446 15.51601408361084 TIMED 1 26998U 01055B 25351.19546738 .00001344 00000+0 12744-3 0 9996 2 26998 74.0677 241.3075 0000836 212.6869 147.4264 14.94705384303627 CORIOLIS 1 27640U 03001A 25351.60501511 .00000135 00000+0 84091-4 0 9992 2 27640 98.7140 356.2631 0014375 20.1190 340.0551 14.19874206188455 SORCE 1 27651U 03004A 25351.62371205 .00003005 00000+0 23387-3 0 9993 2 27651 39.9896 216.5988 0016730 191.0065 169.0364 15.02322884244571 MOST 1 27843U 03031D 25351.58489505 .00000088 00000+0 60214-4 0 9993 2 27843 98.7065 356.8378 0010793 60.1967 300.0282 14.21271749164914 SCISAT 1 1 27858U 03036A 25351.62197428 .00000607 00000+0 82762-4 0 9998 2 27858 73.9284 172.0158 0008573 276.0762 83.9437 14.81126467204563 SWIFT 1 28485U 04047A 25351.62800181 .00031944 00000+0 51681-3 0 9998 2 28485 20.5526 127.7779 0003896 348.1702 11.8649 15.50887071158476 HINODE (SOLAR-B) 1 29479U 06041A 25351.59622199 .00000589 00000+0 11028-3 0 9997 2 29479 98.0645 5.3697 0018366 141.0037 219.2497 14.68310332 28224 SHIJIAN-6 02A (SJ-6 02A) 1 29505U 06046A 25351.61512303 .00005392 00000+0 29768-3 0 9997 2 29505 97.6620 26.3892 0004622 60.4105 299.7587 15.14353951 44768 SHIJIAN-6 02B (SJ-6 02B) 1 29506U 06046B 25351.62250666 .00001903 00000+0 15537-3 0 9993 2 29506 97.6888 17.1542 0013677 321.7844 38.2409 15.00553784 43509 FGRST (GLAST) 1 33053U 08029A 25351.45562045 .00003573 00000+0 13534-3 0 9996 2 33053 25.5838 25.1914 0008168 346.5163 13.5156 15.22631475968099 SDO 1 36395U 10005A 25351.28552193 -.00000077 00000+0 00000+0 0 9996 2 36395 34.2706 89.1177 0001053 152.4804 205.3314 1.00270125 58230 CRYOSAT 2 1 36508U 10013A 25351.61516292 .00000104 00000+0 25132-4 0 9996 2 36508 92.0257 233.3502 0002417 95.0316 265.1167 14.51904355831732 X-SAT 1 37389U 11015C 25351.59985574 -.00000122 00000+0 -34383-4 0 9997 2 37389 98.3307 332.4943 0014384 151.7755 208.4208 14.25130364761817 GCOM-W1 (SHIZUKU) 1 38337U 12025A 25351.62899787 .00000535 00000+0 12867-3 0 9995 2 38337 98.2220 289.7732 0001357 68.1746 104.6818 14.57132643722594 NUSTAR 1 38358U 12031A 25351.66670139 .00003506 00000+0 17534-3 0 9994 2 38358 6.0287 313.5344 0009770 287.7569 32.6818 15.06470493 1303 NEOSSAT 1 39089U 13009D 25351.46209833 .00000171 00000+0 73797-4 0 9998 2 39089 98.4073 170.8747 0012070 70.3161 289.9327 14.35733014670660 BRITE-AUSTRIA 1 39091U 13009F 25351.48085811 .00000190 00000+0 79443-4 0 9996 2 39091 98.3886 170.4791 0011245 65.5802 294.6557 14.36438646670965 IRIS 1 39197U 13033A 25351.51636764 .00001643 00000+0 19680-3 0 9993 2 39197 97.9393 186.2893 0024285 190.4953 169.5758 14.85299065673400 HISAKI (SPRINT-A) 1 39253U 13049A 25351.58297921 .00000110 00000+0 63334-4 0 9992 2 39253 29.7209 63.2792 0136965 344.5908 15.0522 13.55522004606762 CASSIOPE 1 39265U 13055A 25351.53558051 .00037417 -25886-6 49592-3 0 9997 2 39265 80.9207 285.2032 0339915 309.4442 47.7146 15.11890293640098 STSAT-3 1 39422U 13066G 25351.65746329 .00002959 00000+0 23349-3 0 9992 2 39422 97.6005 319.9240 0013186 297.2623 62.7258 15.01418717656953 SWARM B 1 39451U 13067A 25351.64469911 .00002933 00000+0 10928-3 0 9994 2 39451 87.7441 37.3724 0003129 83.0391 277.1214 15.27052650655520 SWARM A 1 39452U 13067B 25351.60758759 .00009830 00000+0 19682-3 0 9991 2 39452 87.3363 123.4708 0002257 91.9230 268.2288 15.46589100678141 SWARM C 1 39453U 13067C 25351.60749830 .00009951 00000+0 19925-3 0 9996 2 39453 87.3361 122.0558 0002255 92.9710 267.1806 15.46587926678104 BRITE-CA1 (TORONTO) 1 40020U 14033L 25351.32990021 .00001217 00000+0 19131-3 0 9997 2 40020 97.9496 118.9622 0080119 138.4983 222.2346 14.72224563615454 OCO 2 1 40059U 14035A 25351.59274672 .00000435 00000+0 10667-3 0 9993 2 40059 98.2221 290.4823 0001295 97.5008 262.6337 14.57053075609605 BRITE-PL2 (HEWELIUSZ) 1 40119U 14049B 25351.28913948 .00001536 00000+0 15061-3 0 9993 2 40119 97.8993 97.1766 0014128 358.0409 2.0753 14.93675707614280 MMS 1 1 40482U 15011A 25351.66670139 -.00000472 00000+0 00000+0 0 9992 2 40482 69.3439 351.4798 8501139 163.4364 144.0491 0.28360027 1388 MMS 2 1 40483U 15011B 25351.66670139 -.00000472 00000+0 00000+0 0 9993 2 40483 69.3414 351.4704 8502602 163.4530 144.0157 0.28360025 1387 MMS 3 1 40484U 15011C 25351.66670139 -.00000472 00000+0 00000+0 0 9994 2 40484 69.3449 351.4872 8502476 163.4486 144.0118 0.28359854 1308 MMS 4 1 40485U 15011D 25351.66670139 -.00000472 00000+0 00000+0 0 9995 2 40485 69.3456 351.4792 8503859 163.4357 144.0483 0.28360026 1387 ASTROSAT 1 40930U 15052A 25351.42760772 .00001719 00000+0 12915-3 0 9998 2 40930 5.9976 23.2445 0008634 316.1189 43.8253 14.82030233552816 DAMPE 1 41173U 15078A 25351.60871735 .00001238 00000+0 44977-4 0 9998 2 41173 97.4542 351.2762 0012565 8.5608 351.5845 15.30172173556772 PISAT 1 41784U 16059B 25351.59111207 .00000982 00000+0 17632-3 0 9997 2 41784 97.8157 354.9368 0030612 66.8146 293.6279 14.68507463493080 HXMT (HUIYAN) 1 42758U 17034A 25351.66559157 .00003841 00000+0 20455-3 0 9995 2 42758 43.0132 112.2915 0031176 75.7373 284.6934 15.16289276470084 FLYING LAPTOP 1 42831U 17042G 25351.60528454 .00003447 00000+0 28149-3 0 9996 2 42831 97.4236 150.0031 0014733 33.5812 326.6343 14.99945078459226 ZHANGHENG 1-01 (CSES-1) 1 43194U 18015C 25351.60821602 .00008748 00000+0 39582-3 0 9993 2 43194 97.6649 148.8698 0018278 188.5163 171.5764 15.21007924437046 SALSAT 1 46495U 20068K 25351.51398153 .00007457 00000+0 28925-3 0 9996 2 46495 97.8780 339.0442 0009285 210.0170 150.0536 15.26405168287611 IXPE 1 49954U 21121A 25351.66670139 .00010348 00000+0 59499-3 0 9996 2 49954 0.2294 248.8523 0007228 218.3422 24.4659 15.08030632 5635